Flag for Germany Weather past 2 weeks in Fürstenfeldbruck, Bavaria, Germany

Now
61 °F

Scattered clouds.


Feels Like: 61 °F
Forecast: 43 / 69 °F
Wind: 7 mph from Northwest

Location: Oberpfaffenhofen

Current Time: Aug 21, 2014 at 2:23:40 PM

Latest Report: Aug 21, 2014 at 1:50 PM


Visibility: N/A

Pressure: 30.07 "Hg

Humidity: 52%

Dew point: 43 °F

Location of FürstenfeldbruckLocation

Historic Weather in Fürstenfeldbruck — Graph

°F

Fürstenfeldbruck temperature yesterday

Maximum temperature yesterday: 59 °F (at 2:50 PM)
Minimum temperature yesterday: 52 °F (at 6:50 AM)
Average temperature yesterday: 57 °F

Past Weeks' High & Low Weather Summary

 TemperatureHumidityPressure
High84 °F (Aug 10, 2:50 PM)94% (Aug 7, 7:20 AM)30.15 "Hg (Aug 7, 7:20 AM)
Low52 °F (Aug 14, 6:50 AM)37% (Aug 10, 2:50 PM)29.68 "Hg (Aug 13, 3:50 PM)
Average63 °F70%29.98 "Hg
* Reported Aug 6 1:20 PM — Aug 21 1:20 PM, Fürstenfeldbruck, Weather by CustomWeather, © 2014

Note: Actual official high and low records may vary slightly from our data, if they occured in-between our weather recording intervals... More about our weather records

Advertising

Fürstenfeldbruck weather history for previous 24 hours

 ConditionsComfort  
Time TempWeatherWind HumidityBarometerVisibility
1:20 PM
Aug 21
63 °FScattered clouds.3 mph52%30.07 "HgN/A
12:50 PM61 °FScattered clouds.6 mph55%30.09 "HgN/A
12:20 PM61 °FScattered clouds.6 mph59%30.09 "HgN/A
11:50 AM59 °FScattered clouds.7 mph59%30.09 "HgN/A
11:20 AM59 °FScattered clouds.6 mph63%30.09 "HgN/A
10:50 AM59 °FScattered clouds.8 mph63%30.09 "HgN/A
10:20 AM57 °FScattered clouds.6 mph67%30.09 "HgN/A
9:50 AM57 °FPassing clouds.6 mph67%30.09 "HgN/A
9:20 AM55 °FPassing clouds.6 mph77%30.09 "HgN/A
8:50 AM55 °FPartly sunny.3 mph82%30.09 "HgN/A
8:20 AM52 °FPartly sunny.6 mph94%30.09 "HgN/A
7:50 AM52 °FBroken clouds.3 mph88%30.07 "HgN/A
7:20 AM52 °FBroken clouds.5 mph88%30.07 "HgN/A
6:50 AM52 °FPartly cloudy.6 mph94%30.07 "Hg6 mi
7:20 PM
Aug 20
57 °FBroken clouds.3 mph77%30.04 "HgN/A
6:50 PM59 °FBroken clouds.5 mph72%30.04 "HgN/A
6:20 PM59 °FPartly sunny.3 mph72%30.01 "HgN/A
5:50 PM59 °FPartly sunny.2 mph68%30.01 "HgN/A
5:20 PM59 °FPartly sunny.2 mph68%30.04 "HgN/A
4:50 PM59 °FPartly sunny.2 mph68%30.04 "HgN/A
4:20 PM59 °FPartly sunny.5 mph72%30.04 "HgN/A
3:50 PM59 °FBroken clouds.5 mph68%30.04 "HgN/A
3:20 PM59 °FBroken clouds.5 mph72%30.04 "HgN/A
2:50 PM59 °FPartly sunny.3 mph68%30.04 "HgN/A
2:20 PM57 °FSprinkles. Clear.1 mph77%30.04 "HgN/A
Weather by CustomWeather, © 2014

See weather overviewHow to use our weather pages